FW2020 Weather Reports


time (UTC)temp
F
wind
direction
speed
knots
gust
knots
rain 1hr
in
rain 24hr
in
rain mn
in
humidity
%
barometer
mb
20260505031221 51 203 4.3 4.3 0.00 0.00 0.00 84 1013.2
20260505030223 51 90 2.6 2.6 0.00 0.00 0.00 83 1013.2
20260505025226 51 158 6.1 7.8 0.00 0.00 0.00 82 1013.4
20260505024249 52 203 4.3 6.1 0.00 0.00 0.00 82 1013.4
20260505023251 52 212 4.3 6.1 0.00 0.00 0.00 81 1013.4
20260505022237 52 270 2.6 3.5 0.00 0.00 0.00 80 1013.4
20260505021218 52 101 4.3 4.3 0.00 0.00 0.00 79 1013.4
20260505020242 0 115 4.3 5.2 0.00 0.00 0.00 1013.4
20260505015218 53 171 4.3 6.1 0.00 0.00 0.00 77 1013.4
20260505014227 53 146 4.3 5.2 0.00 0.00 0.00 76 1013.2
20260505013229 0 149 3.5 4.3 0.00 0.00 0.00 1013.0
20260505012231 53 235 7.0 7.8 0.00 0.00 0.00 75 1013.0
20260505011216 54 173 4.3 7.0 0.00 0.00 0.00 74 1012.9
20260505010218 0 180 5.2 7.0 0.00 0.00 0.00 1012.7
20260505005220 54 113 3.5 5.2 0.00 0.00 0.00 73 1012.3
20260505004222 55 248 4.3 4.3 0.00 0.00 0.00 71 1012.2
20260505003225 55 158 2.6 3.5 0.00 0.00 0.00 69 1011.9
20260505002249 55 45 3.5 5.2 0.00 0.00 0.00 68 1011.9
20260505001231 56 338 3.5 4.3 0.00 0.00 0.00 66 1011.7
20260505000233 56 111 7.8 9.6 0.00 0.00 0.00 64 1011.7
20260504235217 57 225 5.2 5.2 0.00 0.00 0.00 62 1011.5
20260504234220 0 143 9.6 11.3 0.00 0.00 0.00 1011.4
20260504233245 58 113 8.7 8.7 0.00 0.00 0.00 56 1011.3
20260504232225 59 113 7.0 9.6 0.00 0.00 0.00 53 1011.3
20260504231221 0 158 8.7 8.7 0.00 0.00 0.00 1011.2
20260504230218 62 225 8.7 8.7 0.00 0.00 0.00 48 1010.9
20260504225232 63 180 7.0 10.4 0.00 0.00 0.00 46 1011.0
20260504224216 64 255 6.1 7.0 0.00 0.00 0.00 45 1010.9
20260504223218 64 248 7.0 7.8 0.00 0.00 0.00 44 1010.8
20260504222241 65 90 7.0 7.8 0.00 0.00 0.00 43 1010.8
20260504221344 67 146 6.1 7.8 0.00 0.00 0.00 40 1010.6
20260504220226 68 270 9.6 12.2 0.00 0.00 0.00 41 1010.7
20260504215229 67 263 8.7 8.7 0.00 0.00 0.00 41 1010.8
20260504214231 68 260 8.7 10.4 0.00 0.00 0.00 40 1010.7
20260504213235 68 293 10.4 11.3 0.00 0.00 0.00 41 1010.6
20260504212217 69 81 5.2 8.7 0.00 0.00 0.00 40 1010.6
20260504211219 68 138 10.4 11.3 0.00 0.00 0.00 40 1010.7
20260504210222 70 270 6.1 7.0 0.00 0.00 0.00 39 1010.6
20260504205244 72 346 6.1 6.1 0.00 0.00 0.00 37 1010.5
20260504204227 71 144 4.3 6.1 0.00 0.00 0.00 39 1010.5
20260504203244 71 243 6.1 7.0 0.00 0.00 0.00 38 1010.4
20260504202221 71 163 7.0 7.8 0.00 0.00 0.00 38 1010.4
20260504201218 71 180 6.1 7.0 0.00 0.00 0.00 37 1010.3
20260504200220 72 270 6.1 7.8 0.00 0.00 0.00 37 1010.4
20260504195243 71 68 7.0 7.8 0.00 0.00 0.00 37 1010.4
20260504194225 71 158 7.8 9.6 0.00 0.00 0.00 36 1010.5
20260504193228 70 155 8.7 9.6 0.00 0.00 0.00 35 1010.5
20260504192230 71 7.8 8.7 0.00 0.00 0.00 35 1010.5
20260504191252 71 135 7.8 8.7 0.00 0.00 0.00 34 1010.5
20260504190217 70 248 7.0 7.8 0.00 0.00 0.00 33 1010.8
20260504185219 71 248 8.7 9.6 0.00 0.00 0.00 32 1010.8
20260504184222 71 23 9.6 13.9 0.00 0.00 0.00 31 1010.8
20260504183224 70 8.7 8.7 0.00 0.00 0.00 31 1011.0
20260504182228 71 180 8.7 10.4 0.00 0.00 0.00 32 1011.0
20260504181250 71 9.6 11.3 0.00 0.00 0.00 30 1011.2
20260504180251 72 278 6.1 7.0 0.00 0.00 0.00 33 1011.2
20260504175216 72 216 6.1 7.8 0.00 0.00 0.00 31 1011.2
20260504174240 72 174 13.9 16.5 0.00 0.00 0.00 30 1011.2
20260504173221 71 23 5.2 6.1 0.00 0.00 0.00 31 1011.2
20260504172218 71 90 7.8 9.6 0.00 0.00 0.00 31 1011.2
20260504171226 71 225 8.7 9.6 0.00 0.00 0.00 31 1011.3
20260504170250 71 225 7.0 7.8 0.00 0.00 0.00 33 1011.5
20260504160245 70 146 10.4 13.0 0.00 0.00 0.00 31 1011.9
20260504150222 68 158 7.8 11.3 0.00 0.00 0.00 35 1012.4
20260504141238 67 132 5.2 7.8 0.00 0.00 0.00 39 1013.2
20260504140219 66 54 4.3 5.2 0.00 0.00 0.00 39 1013.2
20260504130217 62 200 3.5 4.3 0.00 0.00 0.00 44 1013.4
20260504120224 53 225 5.2 6.1 0.00 0.00 0.00 53 1013.7
20260504110247 43 248 0.9 1.7 0.00 0.00 0.00 73 1013.7
20260504100222 38 0.0 0.0 0.00 0.00 0.00 77 1013.4
20260504081232 40 0.0 0.0 0.00 0.00 0.00 75 1013.0
20260504080216 40 0.0 0.0 0.00 0.00 0.00 75 1013.2
20260504070232 37 0.0 0.0 0.00 0.00 0.00 81 1012.9
20260504050226 0 0.0 0.0 0.00 0.00 0.00 1013.0
20260504045228 36 0.0 0.0 0.00 0.00 0.00 80 1013.2
20260504044232 36 0.0 0.0 0.00 0.00 0.00 80 1013.2
20260504043216 36 0.0 0.0 0.00 0.00 0.00 78 1013.0
20260504042217 36 0.0 0.0 0.00 0.00 0.00 78 1013.0
20260504041220 36 0.0 0.0 0.00 0.00 0.00 78 1012.9
20260504040223 36 0.0 0.0 0.00 0.00 0.00 77 1012.9
20260504035225 37 0.0 0.0 0.00 0.00 0.00 78 1012.9
20260504034228 37 0.0 0.0 0.00 0.00 0.00 78 1012.7
20260504033224 37 0.0 0.0 0.00 0.00 0.00 77 1012.7
20260504032215 37 0.0 0.0 0.00 0.00 0.00 77 1012.7